{"data":{"norad_id":48378,"epoch":"2026-05-24T21:06:33.252192Z","epoch_age_seconds":92245,"freshness":"FRESH","line1":"1 48378U 21038AB  26144.87955153  .00002519  00000+0  92878-4 0  9998","line2":"2 48378  53.1617 353.6565 0001247  93.0734 267.0410 15.31712337278895","mean_motion":15.31712337,"eccentricity":0.0001247,"inclination_deg":53.1617,"raan_deg":353.6565,"arg_perigee_deg":93.0734,"mean_anomaly_deg":267.041,"bstar":9.2878e-5,"rev_number":27889,"period_min":94.012430742732,"perigee_km":469.84916914208,"apogee_km":471.55726989283,"semimajor_km":6848.8402195175,"source":"CELESTRAK","updated_at":"2026-05-25T13:38:16.688968Z"}}